Location: Street
(51.1247°N, 2.7429°W)
Time: 07:44:40
(UTC+01:00)

PCSat - Pass Details

Date: 27 March 2023
Orbit: 783 x 794 km, 67.1° (Epoch: 29 May)

Event Time Altitude Azimuth Distance (km) Brightness Sun altitude
Rises 01:28:57 0° 323° (NW) 3,302 13.4 -36.4°
Reaches altitude 10° 01:31:25 10° 327° (NNW) 2,370 12.5 -36.4°
Enters shadow 01:33:52 27° 335° (NNW) 1,494 11.4 -36.3°
